Latest Coastal Weather Observations for Esperance Harbour

IDW60701

Issued at 1:23 am WST Sunday 22 January 2017 (issued every 10 minutes, with the page automatically refreshed every 10 minutes)

About coastal observations | Map of coastal stations | Coastal observations for WA | Marine services | Other Formats
Station Details ID: 109504 Name: ESPERANCE NTC AWS Lat: -33.87 Lon: 121.90 Height: 0.0 m
Data from the previous 72 hours. | See also: Recent months for locations in Western Australia
Date/Time
WST
Temp
°C
Wind Pressure Rain since
9am
mm
Weather Cloud Vis
km
Sea
Height
m
Swell
Dir  Spd
kts
Gust
kts
hPa Trend Height
m
Period
s
Dir
22/01:00am 20.1 - - - 1006.0 - - - - - - - - -
22/12:30am 20.2 - - - 1006.4 - - - - - - - - -
22/12:00am 20.5 - - - 1006.6 - - - - - - - - -
 
Date/Time
WST
Temp
°C
Wind Pressure Rain since
9am
mm
Weather Cloud Vis
km
Sea
Height
m
Swell
Dir  Spd
kts
Gust
kts
hPa Trend Height
m
Period
s
Dir
21/11:30pm 20.6 - - - 1007.0 - - - - - - - - -
21/11:00pm 20.8 - - - 1007.3 - - - - - - - - -
21/10:30pm 21.0 - - - 1007.4 - - - - - - - - -
21/10:00pm 21.0 - - - 1007.5 - - - - - - - - -
21/09:30pm 21.5 - - - 1007.6 - - - - - - - - -
21/09:00pm 21.7 - - - 1007.5 - - - - - - - - -
21/08:30pm 22.0 - - - 1007.6 - - - - - - - - -
21/08:00pm 22.3 - - - 1007.8 - - - - - - - - -
21/07:30pm 22.7 - - - 1007.6 - - - - - - - - -
21/07:00pm 22.9 - - - 1007.4 - - - - - - - - -
21/06:30pm 23.1 - - - 1007.2 - - - - - - - - -
21/06:00pm 23.6 - - - 1007.0 - - - - - - - - -
21/05:30pm 24.5 - - - 1006.9 - - - - - - - - -
21/05:00pm 25.1 - - - 1006.7 - - - - - - - - -
21/04:30pm 24.5 - - - 1006.6 - - - - - - - - -
21/04:00pm 24.3 - - - 1006.6 - - - - - - - - -
21/03:30pm 24.2 - - - 1006.7 - - - - - - - - -
21/03:00pm 23.3 - - - 1006.9 - - - - - - - - -
21/02:30pm 23.3 - - - 1007.2 - - - - - - - - -
21/02:00pm 22.4 - - - 1007.5 - - - - - - - - -
21/01:30pm 22.8 - - - 1007.5 - - - - - - - - -
21/01:00pm 22.5 - - - 1007.7 - - - - - - - - -
21/12:30pm 22.1 - - - 1007.9 - - - - - - - - -
21/12:00pm 23.2 - - - 1008.1 - - - - - - - - -
21/11:30am 24.9 - - - 1008.4 - - - - - - - - -
21/11:00am 25.9 - - - 1008.7 - - - - - - - - -
21/10:30am 25.3 - - - 1009.1 - - - - - - - - -
21/10:00am 25.2 - - - 1009.5 - - - - - - - - -
21/09:30am 23.4 - - - 1009.8 - - - - - - - - -
21/09:00am 21.9 - - - 1010.0 - - - - - - - - -
21/08:30am 21.3 - - - 1010.2 - - - - - - - - -
21/08:00am 20.3 - - - 1010.5 - - - - - - - - -
21/07:30am 18.8 - - - 1010.7 - - - - - - - - -
21/07:00am 18.0 - - - 1010.8 - - - - - - - - -
21/06:30am 17.1 - - - 1010.9 - - - - - - - - -
21/06:00am 16.4 - - - 1010.8 - - - - - - - - -
21/05:30am 16.5 - - - 1010.6 - - - - - - - - -
21/05:00am 16.3 - - - 1010.4 - - - - - - - - -
21/04:30am 16.4 - - - 1010.2 - - - - - - - - -
21/04:00am 16.3 - - - 1010.3 - - - - - - - - -
21/03:30am 16.3 - - - 1010.4 - - - - - - - - -
21/03:00am 16.6 - - - 1010.4 - - - - - - - - -
21/02:30am 16.8 - - - 1010.7 - - - - - - - - -
21/02:00am 17.1 - - - 1011.1 - - - - - - - - -
21/01:30am 17.8 - - - 1011.3 - - - - - - - - -
21/01:00am 17.8 - - - 1011.6 - - - - - - - - -
21/12:30am 17.9 - - - 1011.8 - - - - - - - - -
21/12:00am 18.0 - - - 1012.1 - - - - - - - - -
 
Date/Time
WST
Temp
°C
Wind Pressure Rain since
9am
mm
Weather Cloud Vis
km
Sea
Height
m
Swell
Dir  Spd
kts
Gust
kts
hPa Trend Height
m
Period
s
Dir
20/11:30pm 18.1 - - - 1012.4 - - - - - - - - -
20/11:00pm 18.5 - - - 1012.3 - - - - - - - - -
20/10:30pm 18.6 - - - 1012.3 - - - - - - - - -
20/10:00pm 19.0 - - - 1012.3 - - - - - - - - -
20/09:30pm 18.9 - - - 1012.3 - - - - - - - - -
20/09:00pm 19.1 - - - 1012.3 - - - - - - - - -
20/08:30pm 19.0 - - - 1012.2 - - - - - - - - -
20/08:00pm 19.2 - - - 1012.2 - - - - - - - - -
20/07:30pm 19.4 - - - 1012.0 - - - - - - - - -
20/07:00pm 19.7 - - - 1011.7 - - - - - - - - -
20/06:30pm 19.7 - - - 1011.6 - - - - - - - - -
20/06:00pm 19.8 - - - 1011.4 - - - - - - - - -
20/05:30pm 20.0 - - - 1011.3 - - - - - - - - -
20/05:00pm 20.1 - - - 1011.1 - - - - - - - - -
20/04:30pm 20.6 - - - 1011.0 - - - - - - - - -
20/04:00pm 20.2 - - - 1011.2 - - - - - - - - -
20/03:30pm 20.1 - - - 1011.5 - - - - - - - - -
20/03:00pm 20.2 - - - 1011.6 - - - - - - - - -
20/02:30pm 20.0 - - - 1011.7 - - - - - - - - -
20/02:00pm 19.9 - - - 1011.9 - - - - - - - - -
20/01:30pm 19.7 - - - 1012.1 - - - - - - - - -
20/01:00pm 19.7 - - - 1012.5 - - - - - - - - -
20/12:30pm 19.6 - - - 1012.7 - - - - - - - - -
20/12:00pm 19.6 - - - 1012.8 - - - - - - - - -
20/11:30am 19.4 - - - 1013.0 - - - - - - - - -
20/11:00am 19.4 - - - 1013.1 - - - - - - - - -
20/10:30am 19.2 - - - 1013.2 - - - - - - - - -
20/10:00am 19.5 - - - 1013.3 - - - - - - - - -
20/09:30am 18.7 - - - 1013.5 - - - - - - - - -
20/09:00am 18.9 - - - 1013.5 - - - - - - - - -
20/08:30am 18.6 - - - 1013.4 - - - - - - - - -
20/08:00am 18.3 - - - 1013.4 - - - - - - - - -
20/07:30am 18.2 - - - 1013.5 - - - - - - - - -
20/07:00am 18.1 - - - 1013.3 - - - - - - - - -
20/06:30am 17.9 - - - 1013.0 - - - - - - - - -
20/06:00am 17.9 - - - 1012.7 - - - - - - - - -
20/05:30am 17.7 - - - 1012.4 - - - - - - - - -
20/05:00am 17.8 - - - 1012.1 - - - - - - - - -
20/04:30am 17.8 - - - 1012.0 - - - - - - - - -
20/04:00am 18.0 - - - 1011.6 - - - - - - - - -
20/03:30am 17.8 - - - 1011.9 - - - - - - - - -
20/03:00am 17.8 - - - 1011.9 - - - - - - - - -
20/02:30am 17.9 - - - 1011.8 - - - - - - - - -
20/02:00am 17.9 - - - 1011.7 - - - - - - - - -
20/01:30am 17.9 - - - 1011.6 - - - - - - - - -
20/01:00am 17.8 - - - 1011.7 - - - - - - - - -
20/12:30am 17.9 - - - 1011.6 - - - - - - - - -
20/12:00am 18.0 - - - 1011.7 - - - - - - - - -
 
Date/Time
WST
Temp
°C
Wind Pressure Rain since
9am
mm
Weather Cloud Vis
km
Sea
Height
m
Swell
Dir  Spd
kts
Gust
kts
hPa Trend Height
m
Period
s
Dir
19/11:30pm 18.0 - - - 1011.9 - - - - - - - - -
19/11:00pm 18.1 - - - 1011.8 - - - - - - - - -
19/10:30pm 18.0 - - - 1011.7 - - - - - - - - -
19/10:00pm 18.0 - - - 1011.6 - - - - - - - - -
19/09:30pm 18.3 - - - 1011.3 - - - - - - - - -
19/09:00pm 18.3 - - - 1011.2 - - - - - - - - -
19/08:30pm 18.5 - - - 1011.0 - - - - - - - - -
19/08:00pm 18.5 - - - 1010.8 - - - - - - - - -
19/07:30pm 18.9 - - - 1010.5 - - - - - - - - -
19/07:00pm 18.9 - - - 1010.3 - - - - - - - - -
19/06:30pm 18.4 - - - 1010.0 - - - - - - - - -
19/06:00pm 19.0 - - - 1009.5 - - - - - - - - -
19/05:30pm 19.6 - - - 1008.9 - - - - - - - - -
19/05:00pm 19.4 - - - 1008.7 - - - - - - - - -
19/04:30pm 19.7 - - - 1008.3 - - - - - - - - -
19/04:00pm 19.4 - - - 1008.0 - - - - - - - - -
19/03:30pm 19.5 - - - 1007.6 - - - - - - - - -
19/03:00pm 20.6 - - - 1006.9 - - - - - - - - -
19/02:30pm 20.3 - - - 1006.5 - - - - - - - - -
19/02:00pm 21.3 - - - 1006.3 - - - - - - - - -
19/01:30pm 21.1 - - - 1006.2 - - - - - - - - -
19/01:00pm 20.2 - - - 1006.6 - - - - - - - - -
19/12:30pm 20.6 - - - 1006.4 - - - - - - - - -
19/12:00pm 20.9 - - - 1006.7 - - - - - - - - -
19/11:30am 21.4 - - - 1006.6 - - - - - - - - -
19/11:00am 20.7 - - - 1006.4 - - - - - - - - -
19/10:30am 20.7 - - - 1006.3 - - - - - - - - -
19/10:00am 20.0 - - - 1006.6 - - - - - - - - -
19/09:30am 20.7 - - - 1006.6 - - - - - - - - -
19/09:00am 20.6 - - - 1006.5 - - - - - - - - -
19/08:30am 20.6 - - - 1006.1 - - - - - - - - -
19/08:00am 20.4 - - - 1005.8 - - - - - - - - -
19/07:30am 19.3 - - - 1006.5 - - - - - - - - -
19/07:00am 18.9 - - - 1005.7 - - - - - - - - -
19/06:30am 18.8 - - - 1004.6 - - - - - - - - -
19/06:00am 18.6 - - - 1004.5 - - - - - - - - -
19/05:30am 18.6 - - - 1004.2 - - - - - - - - -
19/05:00am 18.6 - - - 1003.7 - - - - - - - - -
19/04:30am 18.5 - - - 1003.9 - - - - - - - - -
19/04:00am 18.3 - - - 1004.3 - - - - - - - - -
19/03:30am 18.4 - - - 1004.9 - - - - - - - - -
19/03:00am 18.4 - - - 1004.9 - - - - - - - - -
19/02:30am 18.6 - - - 1006.1 - - - - - - - - -
19/02:00am 18.7 - - - 1006.0 - - - - - - - - -
19/01:30am 18.9 - - - 1006.1 - - - - - - - - -

Other Formats:

Comma delimited format used in spreadsheet applications
http://www.bom.gov.au/fwo/IDW60701/IDW60701.95648.axf

JavaScript Object Notation format (JSON) in row-major order
http://www.bom.gov.au/fwo/IDW60701/IDW60701.95648.json